Pellston, MI

1:45 AM EDT on April 28, 2017 (GMT -0400)
Pellston Regional Airport Of Emmet County

Weather History for KPLN - August, 2014

Change the Weather History Date:

Thursday, August 7, 2014

  Actual Average Record
Temperature  
Mean Temperature 64 °F -  
Max Temperature 82 °F 79 °F 93 °F (2001)
Min Temperature 48 °F 53 °F 39 °F (1976)
Growing Degree Days 14 (Base 50)    
Moisture  
Dew Point 53 °F    
Average Humidity 70    
Maximum Humidity 97    
Minimum Humidity 34    
Precipitation  
Precipitation 0.00 in - - ()
Sea Level Pressure  
Sea Level Pressure 30.13 in    
Wind  
Wind Speed 3 mph (NNE)    
Max Wind Speed 8 mph    
Max Gust Speed -    
Visibility 10 miles    
Events      
Averages and records for this station are not official NWS values.
T = Trace of Precipitation, MM = Missing Value Source: NWS Daily Summary

Daily Weather History Graph

Daily Weather History Graph

Search for Another Location

Airport or City:

Trip Planner

Search our weather history database for the weather conditions in past years. The results will help you decide how hot, cold, wet, or windy it might be!

Date:

Astronomy

Aug. 07, 2014 Rise Set
Actual Time 6:29 AM EDT 8:59 PM EDT
Civil Twilight 5:56 AM EDT 9:32 PM EDT
Nautical Twilight 5:14 AM EDT 10:13 PM EDT
Astronomical Twilight 4:27 AM EDT 11:01 PM EDT
Moon 6:17 PM EDT (8/7) 2:56 AM EDT (8/7)
Length of Visible Light 15h 35m
Length of Day
14h 29m
Waxing Gibbous, 86% of the Moon is Illuminated
Aug 7
Waxing Gibbous
Aug 10
Full
Aug 17
Last Quarter
Aug 25
New
Sep 2
First Quarter

Hourly Weather History & Observations

Time (EDT) Temp. Dew Point Humidity Pressure Visibility Wind Dir Wind Speed Gust Speed Precip Events Conditions
12:54 AM 55.0 °F 53.1 °F 93% 30.11 in 10.0 mi WNW 4.6 mph - N/A   Clear
1:54 AM 54.0 °F 53.1 °F 97% 30.11 in 10.0 mi West 4.6 mph - N/A   Clear
2:54 AM 54.0 °F 52.0 °F 93% 30.12 in 10.0 mi NNW 3.5 mph - N/A   Clear
3:54 AM 53.1 °F 52.0 °F 96% 30.11 in 10.0 mi Calm Calm - N/A   Clear
4:54 AM 52.0 °F 51.1 °F 97% 30.12 in 10.0 mi Calm Calm - N/A   Clear
5:54 AM 50.0 °F 48.9 °F 96% 30.12 in 4.0 mi NNW 4.6 mph - N/A   Clear
6:54 AM 48.9 °F 48.0 °F 97% 30.14 in 9.0 mi Calm Calm - N/A   Partly Cloudy
8:54 AM 62.1 °F 57.0 °F 84% 30.16 in 10.0 mi Calm Calm - N/A   Clear
9:54 AM 68.0 °F 57.9 °F 70% 30.16 in 10.0 mi Calm Calm - N/A   Clear
10:54 AM 73.0 °F 57.0 °F 57% 30.17 in 10.0 mi Variable 3.5 mph - N/A   Clear
11:54 AM 79.0 °F 54.0 °F 42% 30.15 in 10.0 mi NNE 5.8 mph - N/A   Clear
12:54 PM 79.0 °F 53.1 °F 40% 30.14 in 10.0 mi NE 6.9 mph - N/A   Scattered Clouds
1:54 PM 77.0 °F 54.0 °F 45% 30.13 in 10.0 mi North 6.9 mph - N/A   Mostly Cloudy
2:54 PM 79.0 °F 52.0 °F 39% 30.12 in 10.0 mi East 4.6 mph - N/A   Mostly Cloudy
3:54 PM 80.1 °F 50.0 °F 35% 30.12 in 10.0 mi NNW 3.5 mph - N/A   Overcast
4:54 PM 81.0 °F 50.0 °F 34% 30.11 in 10.0 mi NE 5.8 mph - N/A   Scattered Clouds
6:54 PM 79.0 °F 51.1 °F 38% 30.10 in 10.0 mi East 8.1 mph - N/A   Clear
7:54 PM 75.9 °F 52.0 °F 43% 30.10 in 10.0 mi ESE 4.6 mph - N/A   Clear
8:54 PM 68.0 °F 55.0 °F 63% 30.11 in 10.0 mi Calm Calm - N/A   Clear
9:54 PM 61.0 °F 55.0 °F 81% 30.12 in 10.0 mi Calm Calm - N/A   Clear
10:54 PM 57.0 °F 55.9 °F 96% 30.13 in 10.0 mi Calm Calm - N/A   Clear
11:54 PM 55.0 °F 54.0 °F 96% 30.12 in 9.0 mi Calm Calm - N/A   Clear